Terug naar catalogus

STARLINK-36454

ActiefCommunicatieVLEO
NORAD 67470·PAYLOAD·🇺🇸 United States

Gelanceerd Jan 14, 2026 vanaf Cape Canaveral Space Force Station

Loading…

Volgende Passages (komende 24 uur)

TLE

VersSource: CelesTrak SupGP

Epoch: Sep 15, 2026, 03:53 UTC

1 67470C 26008AB  26258.16229167 -.00040707  00000+0 -14747-2 0  2589
2 67470  42.9995 214.9881 0001136 274.1777  15.0409 15.27593378    13

Volg STARLINK-36454 in realtime met AllMySat

Download on the App Store